Wind_Speed
7 7 7 7 7 7 7 7 8 8 7 6 6 6 6 6 5 5 6 7 7 7 7 6 7 7 7 7 8 8 8 7 7 7 7 7 7 7 7 7 8 8 8
8 8 7 7 7 7 7 7 7 8 7 7 6 6 7 7 6 6 6 7 7 7 7 7 7 8 8 9 9 9 9 8 8 8 8 8 8 8 7 8 8 9 9
9 9 8 8 8 8 8 8 8 9 9 8 8 7 7 7 7 7 7 8 7 7 8 8 8 8 9 9 10 10 9 9 9 9 9 9 9 8 8 8 9 9 10
9 9 10 9 9 8 9 9 9 9 9 9 9 8 8 8 9 9 9 9 8 8 8 9 9 9 10 10 10 10 10 10 10 10 10 10 11 10 10 9 10 11 12
10 10 10 10 9 9 10 10 10 10 10 10 9 9 10 10 10 10 10 10 10 10 9 10 10 10 10 10 11 11 11 11 11 12 12 12 12 12 12 11 12 12 12
10 9 9 10 9 9 9 10 11 11 11 11 11 10 10 10 11 11 11 11 10 11 10 11 11 11 11 12 12 12 12 12 12 12 13 13 13 13 13 13 14 15 15
10 9 10 10 10 10 10 11 12 12 12 12 12 11 11 11 12 12 12 12 12 12 12 12 12 13 13 14 14 14 14 14 14 14 14 14 14 14 14 15 15 16 16
11 11 11 11 11 11 11 12 12 12 12 12 13 13 13 13 13 12 12 13 13 13 13 13 14 15 15 16 15 15 15 16 16 16 16 16 16 16 16 17 17 17 18
13 12 12 12 12 12 12 12 12 12 13 13 13 14 14 14 14 13 13 13 13 14 14 15 16 16 16 17 17 17 18 18 18 18 18 18 18 19 19 19 19 19 20
13 13 12 12 12 12 13 13 13 13 14 14 14 15 14 14 14 14 14 14 15 16 16 17 18 18 19 19 20 19 19 20 20 20 20 20 20 21 21 22 22 22 22
14 13 13 13 14 14 14 15 15 15 15 15 15 15 15 16 16 16 16 16 17 17 18 19 19 20 20 21 21 21 21 21 21 21 22 22 22 23 23 24 24 23 23
15 15 15 15 15 15 16 15 16 16 16 16 17 17 17 16 16 17 17 18 19 19 20 20 20 21 21 22 22 22 22 22 23 23 23 24 24 25 25 25 25 25 25
16 16 16 16 16 16 16 16 17 17 16 17 17 17 17 17 17 17 18 19 20 20 21 21 21 22 22 23 23 24 24 24 24 24 24 25 25 26 26 26 26 27 27
17 17 16 16 16 17 17 17 18 17 17 18 18 19 19 19 19 19 19 20 21 21 22 23 23 23 23 24 25 25 25 25 25 25 25 25 26 26 26 26 26 27 28
17 17 18 18 18 19 19 19 19 19 19 19 20 20 20 21 21 20 21 21 22 23 23 23 24 25 25 26 26 26 26 26 27 27 26 26 26 26 26 27 27 28 28
19 18 19 19 20 20 20 20 20 20 21 21 22 22 22 22 22 22 23 23 24 25 25 25 26 27 27 27 27 27 28 28 28 28 28 28 28 28 28 29 29 29 30
20 20 20 21 22 22 21 21 21 22 22 23 24 24 24 24 24 25 25 25 26 27 28 28 28 28 28 28 28 29 29 30 30 30 30 30 30 30 30 30 31 31 31
21 21 22 23 23 23 23 23 23 23 24 24 25 26 25 25 26 26 27 27 28 28 28 29 29 29 30 29 29 30 30 30 31 31 31 31 31 31 31 32 32 32 33
23 23 24 24 24 24 24 25 25 25 25 26 27 26 26 27 28 28 28 29 29 30 30 31 30 31 31 30 30 30 31 31 31 32 32 32 32 32 32 32 32 33 34
25 25 25 26 26 26 26 26 26 27 27 28 28 28 28 28 28 29 29 30 30 31 31 32 31 31 31 31 31 31 32 32 33 33 34 34 34 33 33 33 33 33 33
27 26 27 27 27 27 27 28 28 29 29 29 30 29 29 29 30 31 32 32 32 32 32 32 31 31 31 32 32 33 33 32 33 34 34 34 34 34 34 33 33 33 33
27 27 27 27 28 28 28 29 29 30 30 31 31 30 30 30 31 32 33 34 34 34 33 33 32 32 32 33 33 34 33 33 34 34 35 34 34 34 34 34 34 34 34
27 26 27 28 28 29 29 29 30 31 31 32 32 32 31 30 32 33 34 34 34 34 34 34 33 33 33 33 33 33 34 34 34 34 35 34 34 34 35 35 35 35 35
26 27 27 28 28 29 29 30 30 30 31 31 31 30 30 30 32 33 34 34 34 33 33 33 33 33 34 34 34 34 35 35 35 35 34 34 34 34 33 33 33 33 33
26 26 27 28 28 29 29 29 29 30 30 31 30 30 30 31 32 33 34 34 33 32 32 31 32 33 33 34 35 35 35 36 35 35 35 34 34 33 31 31 31 31 31
26 27 27 27 28 28 28 28 29 29 29 29 30 30 31 31 31 32 32 32 32 31 31 32 32 33 34 34 35 35 35 35 35 34 33 33 31 31 30 30 30 30 30
Wind_Direction
360 357 352 351 351 351 355 355 357 357 358 359 0 356 353 350 347 341 341 344 343 344 342 342 340 338 339 335 331 327 327 326 319 311 304 302 299 293 290 282 274 270 265
352 344 340 340 339 342 344 346 346 346 347 345 342 338 338 338 336 337 336 336 336 335 333 333 332 332 331 330 325 325 323 322 317 309 299 298 297 296 293 286 280 272 267
343 336 332 330 329 330 330 333 337 341 342 336 327 326 329 332 332 331 329 327 325 324 325 326 327 327 326 327 325 324 320 314 308 305 303 295 295 296 293 288 282 274 270
335 333 328 323 322 321 319 318 324 333 336 332 323 320 324 326 327 324 322 318 317 319 318 318 320 321 322 323 322 322 320 315 309 306 302 298 291 291 293 289 283 278 274
329 329 326 322 321 319 316 317 323 324 323 322 320 320 320 319 317 315 314 314 312 313 314 315 314 314 314 314 315 315 316 315 311 307 303 299 295 291 288 287 286 282 278
325 323 325 327 324 319 318 317 318 319 322 321 322 320 316 315 314 312 310 310 310 310 312 312 311 312 312 313 313 311 309 310 309 307 303 300 297 293 289 287 287 286 282
317 318 318 320 320 318 316 317 317 316 319 320 319 318 316 315 314 310 311 307 306 304 305 306 307 308 308 309 309 307 306 306 304 303 301 298 295 293 291 288 286 287 285
315 314 315 316 318 317 316 317 316 314 316 319 318 317 317 315 315 311 313 309 304 301 301 301 303 305 304 304 304 304 304 302 300 298 296 294 293 292 291 289 288 286 285
316 315 313 313 316 315 314 314 315 313 313 313 314 314 313 314 315 314 312 312 308 304 302 302 302 303 302 301 302 302 300 298 296 294 292 291 290 290 289 287 286 285 284
311 309 309 310 311 310 309 311 311 311 310 310 311 311 311 311 311 311 311 309 310 308 303 302 301 300 299 300 300 300 298 295 294 292 290 289 287 287 287 285 283 282 281
304 302 302 304 306 307 306 306 308 307 307 307 308 307 308 308 308 308 308 306 306 306 305 300 298 298 297 297 297 296 295 294 292 291 289 287 285 284 284 283 282 281 279
296 296 297 301 303 305 305 306 306 305 304 305 308 309 307 307 307 307 305 304 304 304 303 303 301 298 296 295 294 294 294 292 291 291 289 288 286 284 283 282 281 280 279
294 295 295 299 303 304 303 303 304 303 302 304 306 308 308 307 306 305 304 303 303 302 301 301 299 299 298 297 294 292 292 291 291 291 290 288 287 285 283 282 281 279 279
293 296 298 298 301 303 301 301 301 301 301 303 305 306 308 306 304 303 303 302 302 301 301 301 299 298 297 297 297 295 293 293 293 292 291 289 287 285 284 282 281 281 280
290 293 295 297 299 299 298 298 299 300 301 302 303 304 304 304 304 304 304 303 303 302 302 301 299 298 297 297 296 294 294 293 293 293 292 291 289 287 285 283 281 281 280
286 289 292 294 295 294 294 294 295 296 297 298 300 300 300 301 302 303 302 302 302 302 301 300 299 298 297 296 296 294 293 293 292 291 290 290 289 287 286 284 283 281 280
281 285 287 289 290 290 289 290 290 291 293 295 295 296 297 298 300 301 301 302 301 302 302 301 299 298 297 296 296 295 294 293 291 290 289 288 288 287 286 284 282 281 280
283 281 282 285 287 287 287 287 287 289 291 292 294 294 294 297 298 298 301 302 302 303 302 302 300 299 297 296 296 296 295 294 292 291 291 290 289 288 286 284 282 281 279
282 281 282 284 285 285 286 285 285 288 290 291 293 293 291 294 295 296 298 301 302 301 301 301 301 300 298 296 296 296 295 294 294 293 292 291 290 288 287 285 283 281 280
283 282 281 283 282 282 284 285 285 287 288 290 290 290 290 292 294 295 297 299 300 301 301 301 300 300 299 297 296 296 296 295 295 294 293 292 291 289 288 286 283 282 280
281 280 281 281 281 282 283 283 285 287 288 289 290 291 292 294 294 295 297 298 299 299 300 299 299 299 299 298 297 297 297 296 296 296 294 293 291 288 287 285 284 282 280
281 281 281 281 282 282 282 283 285 288 288 289 289 292 293 294 295 295 297 298 298 299 298 298 298 299 298 299 299 298 298 298 297 296 294 292 290 287 285 284 283 282 280
282 283 282 282 282 283 283 285 287 288 289 291 293 293 291 293 295 296 297 298 298 298 298 298 298 298 298 299 300 299 300 300 298 297 296 293 291 288 286 284 282 281 280
283 284 284 285 285 285 286 287 288 289 290 291 293 294 294 294 296 297 298 299 299 298 298 299 298 298 298 300 301 301 301 301 301 300 299 296 292 290 289 287 284 282 281
286 286 286 287 287 287 287 288 291 292 292 292 292 294 295 295 296 297 299 299 299 299 299 300 300 300 301 301 301 301 300 300 301 300 299 297 295 293 292 291 287 284 282
288 288 288 288 287 287 288 289 292 293 293 293 294 295 295 295 296 297 299 299 299 300 300 300 300 301 301 301 301 302 301 300 300 300 298 298 296 294 293 292 291 289 285
Height
5912 5910 5909 5907 5905 5904 5902 5900 5899 5897 5896 5894 5893 5892 5890 5889 5888 5887 5885 5884 5883 5882 5881 5880 5879 5877 5876 5875 5873 5872 5870 5869 5868 5867 5866 5865 5864 5863 5862 5862 5861 5861 5861
5912 5910 5908 5907 5905 5904 5902 5900 5899 5897 5895 5894 5892 5891 5890 5888 5887 5886 5885 5883 5882 5881 5880 5879 5878 5876 5875 5873 5872 5871 5869 5868 5867 5866 5865 5864 5863 5862 5861 5860 5860 5859 5859
5911 5909 5908 5906 5905 5903 5902 5900 5898 5897 5895 5893 5892 5891 5889 5888 5886 5885 5884 5882 5881 5880 5879 5878 5876 5875 5873 5872 5870 5869 5868 5867 5865 5864 5863 5862 5861 5860 5859 5858 5858 5857 5857
5911 5909 5907 5905 5904 5902 5901 5899 5898 5896 5894 5893 5891 5890 5889 5887 5885 5884 5882 5881 5879 5878 5877 5876 5874 5873 5872 5870 5869 5867 5866 5865 5863 5862 5861 5860 5859 5858 5857 5856 5855 5854 5854
5910 5908 5906 5904 5903 5901 5899 5898 5896 5895 5893 5891 5890 5888 5887 5885 5884 5882 5880 5879 5877 5876 5875 5874 5872 5871 5870 5868 5867 5865 5864 5863 5861 5860 5859 5857 5856 5855 5854 5853 5852 5851 5850
5909 5907 5905 5903 5901 5900 5898 5896 5895 5893 5892 5890 5888 5887 5885 5883 5882 5880 5878 5877 5875 5874 5872 5871 5870 5868 5867 5865 5864 5863 5861 5860 5859 5857 5856 5854 5853 5852 5851 5850 5849 5848 5847
5907 5905 5904 5902 5900 5898 5896 5895 5893 5891 5890 5888 5886 5884 5883 5881 5879 5878 5876 5875 5873 5871 5870 5868 5867 5866 5864 5863 5861 5860 5858 5857 5855 5854 5852 5851 5850 5848 5847 5846 5845 5844 5843
5905 5903 5901 5899 5898 5896 5895 5893 5891 5889 5888 5886 5884 5882 5881 5879 5877 5875 5873 5872 5870 5869 5867 5865 5864 5862 5861 5859 5857 5856 5854 5853 5851 5850 5848 5847 5846 5844 5843 5842 5841 5840 5839
5903 5901 5899 5897 5896 5894 5893 5891 5889 5887 5885 5884 5882 5880 5878 5876 5874 5872 5870 5869 5867 5865 5864 5862 5860 5858 5857 5855 5853 5852 5850 5848 5847 5845 5844 5842 5841 5840 5838 5837 5836 5835 5834
5900 5898 5897 5895 5893 5892 5890 5888 5887 5885 5883 5881 5879 5877 5875 5872 5871 5869 5867 5865 5863 5861 5860 5858 5856 5854 5852 5850 5848 5846 5845 5843 5841 5840 5839 5837 5836 5834 5833 5832 5830 5829 5829
5897 5896 5894 5892 5891 5889 5888 5886 5884 5882 5880 5878 5876 5873 5871 5869 5867 5865 5863 5861 5859 5857 5855 5853 5851 5849 5847 5845 5843 5841 5839 5837 5836 5834 5833 5831 5830 5828 5827 5826 5824 5823 5822
5894 5892 5891 5889 5888 5886 5884 5882 5880 5878 5876 5874 5872 5870 5867 5865 5863 5861 5859 5857 5855 5853 5851 5849 5846 5844 5842 5840 5838 5836 5834 5832 5830 5828 5826 5825 5823 5822 5820 5819 5818 5817 5815
5891 5889 5887 5886 5884 5883 5881 5879 5877 5875 5872 5870 5868 5866 5864 5861 5859 5857 5855 5853 5851 5849 5847 5844 5842 5839 5837 5834 5832 5830 5828 5825 5823 5821 5819 5818 5816 5815 5813 5812 5810 5809 5808
5887 5885 5884 5882 5880 5879 5877 5875 5873 5871 5869 5866 5864 5862 5859 5857 5855 5853 5851 5848 5846 5843 5841 5839 5836 5833 5831 5828 5826 5823 5821 5818 5816 5814 5812 5810 5809 5807 5805 5804 5803 5801 5800
5882 5881 5879 5877 5876 5874 5872 5870 5868 5866 5864 5862 5860 5857 5855 5853 5851 5848 5846 5843 5840 5838 5835 5832 5830 5827 5824 5822 5819 5816 5814 5812 5809 5807 5805 5803 5801 5799 5797 5796 5795 5793 5792
5877 5875 5874 5872 5871 5869 5867 5865 5863 5861 5859 5857 5855 5852 5850 5848 5845 5842 5840 5837 5834 5831 5829 5826 5823 5820 5817 5814 5812 5809 5807 5804 5802 5799 5797 5795 5793 5791 5789 5787 5786 5784 5783
5870 5870 5868 5867 5865 5864 5862 5860 5858 5856 5854 5851 5849 5846 5844 5841 5839 5836 5833 5830 5828 5825 5822 5819 5816 5813 5810 5807 5804 5801 5798 5796 5793 5791 5788 5786 5784 5782 5780 5778 5776 5775 5774
5864 5863 5862 5861 5859 5857 5855 5854 5852 5850 5847 5845 5843 5840 5837 5835 5832 5829 5826 5824 5821 5817 5814 5811 5808 5805 5802 5799 5796 5793 5790 5787 5784 5782 5780 5777 5775 5772 5770 5768 5766 5765 5764
5858 5856 5855 5854 5852 5851 5849 5847 5845 5843 5841 5838 5836 5833 5830 5828 5825 5823 5820 5816 5813 5810 5807 5803 5800 5797 5793 5790 5787 5784 5781 5778 5775 5773 5770 5768 5765 5763 5760 5758 5756 5755 5753
5851 5849 5848 5846 5845 5843 5841 5839 5837 5836 5833 5831 5828 5825 5823 5820 5818 5815 5812 5809 5805 5802 5798 5795 5792 5788 5785 5782 5778 5775 5772 5769 5766 5763 5760 5757 5755 5752 5750 5748 5746 5744 5743
5844 5842 5841 5839 5837 5835 5834 5832 5830 5827 5825 5823 5820 5817 5815 5812 5810 5807 5804 5801 5797 5794 5790 5786 5783 5779 5776 5773 5769 5766 5762 5759 5756 5753 5750 5746 5743 5741 5739 5737 5736 5734 5732
5836 5834 5833 5831 5829 5827 5826 5824 5821 5819 5817 5815 5812 5809 5807 5804 5801 5798 5795 5792 5788 5785 5781 5777 5774 5770 5767 5764 5760 5757 5753 5749 5746 5743 5739 5736 5732 5730 5728 5726 5725 5723 5722
5828 5826 5825 5823 5822 5820 5818 5816 5813 5811 5809 5806 5803 5801 5798 5795 5792 5789 5786 5783 5779 5775 5772 5768 5764 5761 5757 5754 5751 5747 5743 5739 5736 5732 5728 5724 5721 5719 5717 5715 5713 5712 5710
5820 5818 5817 5815 5814 5812 5809 5807 5805 5802 5800 5797 5795 5792 5789 5786 5783 5780 5777 5773 5769 5766 5762 5758 5755 5751 5748 5744 5740 5737 5733 5729 5725 5722 5718 5714 5711 5708 5705 5703 5702 5700 5699
5812 5810 5809 5807 5805 5803 5801 5799 5796 5794 5791 5789 5786 5783 5780 5777 5774 5771 5768 5764 5760 5757 5753 5750 5746 5742 5739 5735 5731 5727 5723 5719 5715 5711 5708 5704 5701 5698 5695 5693 5691 5690 5689
5804 5803 5801 5799 5797 5795 5792 5790 5788 5786 5783 5780 5778 5774 5771 5769 5766 5763 5759 5755 5752 5748 5745 5741 5737 5733 5730 5726 5722 5718 5714 5710 5706 5702 5698 5695 5691 5689 5686 5684 5682 5680 5679